Regional Weather Roundup
Issued by NWS Cleveland, OH

Home | Current Version | Previous Version | Graphics & Text | Print | Product List | Glossary On
Versions: 1 2 3 4 5 6 7 8 9 10 11 12 13 14 15 16 17 18 19 20 21 22 23 24 25 26 27 28 29 30 31 32 33 34 35 36 37 38 39 40 41 42 43 44 45 46 47 48 49 50
000
ASUS41 KCLE 301702
RWRCLE
OHIO REGIONAL WEATHER ROUNDUP
NATIONAL WEATHER SERVICE CLEVELAND, OH
100 PM EDT WED JUL 30 2014

NOTE: "FAIR" INDICATES FEW OR NO CLOUDS BELOW 12,000 FEET WITH NO
SIGNIFICANT WEATHER AND/OR OBSTRUCTIONS TO VISIBILITY.

OHZ001>008-015>018-024>027-034-035-043-044-301800-
   NORTHWEST OHIO

CITY           SKY/WX    TMP DP  RH WIND       PRES   REMARKS
DEFIANCE       PTSUNNY   72  57  59 VRB5      30.04S
FINDLAY        PTSUNNY   73  60  63 W10       30.03S
TOLEDO EXPRESS PTSUNNY   75  57  53 SW7       30.02S
TOLEDO EXEC    NOT AVBL
LIMA           PTSUNNY   74  59  59 MISG      30.04F
$$

OHZ009>014-019>023-028>033-038-089-301800-
   NORTHEAST OHIO

CITY           SKY/WX    TMP DP  RH WIND       PRES   REMARKS
CLE-HOPKINS    PTSUNNY   71  59  65 SW9       30.04F
CLE-LAKEFRONT  NOT AVBL
CUY CO. ARPT   PTSUNNY   72  59  64 W14       30.03S
LORAIN-ELYRIA  NOT AVBL
ASHTABULA      PTSUNNY   68  58  70 W8        30.02F
AKRON-CANTON   CLOUDY    69  56  62 W9        30.05S
WOOSTER        CLOUDY    67  58  72 SW8       30.06S
MANSFIELD      MOSUNNY   69  59  70 S8        30.05F
YOUNGSTOWN     CLOUDY    71  56  58 SW7       30.03F
$$

OHZ042-051>053-060>062-070>072-077>081-301800-
  SOUTHWEST OHIO

CITY           SKY/WX    TMP DP  RH WIND       PRES   REMARKS
CINC-COVINGTON PTSUNNY   77  59  53 W13G20    30.08F
CINC-LUNKEN    PTSUNNY   78  61  55 W12       30.06F
HAMILTON       MOSUNNY   76  62  62 VRB5      30.07F
DAYTON         PTSUNNY   76  59  55 W16G23    30.05F
WRIGHT-PAT AFB MOSUNNY   75  63  64 SW14G20   30.03F THUNDER
DAYTON GENERAL PTSUNNY   76  61  59 W9        30.05F
WILMINGTON     PTSUNNY   73  59  61 SW9       30.06F
$$

OHZ036-037-039>041-045>050-054>059-063>069-073>076-082>088-301800-
  CENTRAL AND SOUTHEAST OHIO

CITY           SKY/WX    TMP DP  RH WIND       PRES   REMARKS
COLUMBUS       PTSUNNY   75  57  53 W10G17    30.04F
OSU AIRPORT    MOSUNNY   76  59  55 SW8       30.04F
BOLTON FIELD   MOSUNNY   73  61  64 SW6       30.05F
RICKENBACK AFB MOSUNNY   76  55  48 W7        30.05S
NEWARK         PTSUNNY   73  60  63 SW8       30.05F
MARION         CLOUDY    71  60  68 SW8       30.05S
LANCASTER      MOSUNNY   74  61  63 W12       30.06F
ZANESVILLE     NOT AVBL
NEW PHILLY     LGT RAIN  66  61  82 NW8       30.06F
$$



USA.gov is the U.S. government's official web portal to all federal, state and local government web resources and services.